NISAR

基本信息
目录编号:
65053
目录名称:
NISAR
国际标识:
2025-163A
轨道中心:
EARTH
卫星名称:
NISAR
卫星全名:
NISAR
卫星状态:
在轨 (已飞行91 天)
发射日期:
2025-07-30 UTC
国别 :
印度 (IN)
星等 :
--
轨道信息
数据来源 国际轨道数据 AOE轨道数据
星历时间 2025-10-28T21:23:37+0800
18小时前
查看轨道信息
2025-10-27T18:00:00+0800
1天前
查看轨道信息
半长轴 7128.376km 7128.374km
偏心率 0.0001223 0.0001123
轨道倾角 98.406° 98.404°
近地点辐角 88.725° 93.225°
升交点赤经 127.538° 126.413°
平近点角 271.408° 103.057°
近地点 749.369km 749.438km
远地点 751.113km 751.04km
周期 99.826分钟 99.826分钟
每日圈数 14.425036 14.425042
详细信息
使用方式:
暂无
2D轨道图
3D轨道图
轨道高度分析图
轨道倾角分析图
轨道综合分析图
查看轨道综合分析图